Date String (YYYY-MM-DD hh:mm:ss) UTC,Instrument flags,absolute air pressure of the measurement (hPa),sample flow rate (lpm),inlet stack bypass flow (lpm),air temperature of the measurement (°C),ambient temperature measured by the external sensor (°C),aerosol sample conditioner tube jacket temperature (°C),OPC LED temperature (°C),internal box temperature (°C),relative humidity of the measurement (%),span deviation,mass concentration of particles derived from Lorenz-Mie calculation of OPC scattering (μg/m³),mass concentration of particles derived from Lorenz-Mie calculation of OPC scattering (μg/m³),mass concentration of particles derived from Lorenz-Mie calculation of OPC scattering (μg/m³)
DateTimeUTC,F1_M11,P_M11,Q1_M11,Q2_M11,T1_M11,T2_M11,T3_M11,T4_M11,T5_M11,U1_M11,ZSPAN_M11,X0_M11,X2_M11,X1_M11
2023-06-05 00:00:00,SystemResetWarning,0834.1,5.00,000.00,030.6,029.1,000.0,039.0,032.2,29.9,0000.0,0003.91,0002.75,0002.28
2023-06-05 00:01:00,SystemResetWarning,0834.1,5.00,000.00,030.6,029.1,000.0,039.0,032.2,30.0,0000.0,0003.85,0002.73,0002.28
2023-06-05 00:02:00,SystemResetWarning,0834.1,4.99,000.00,030.6,029.1,000.0,039.0,032.2,30.2,0000.0,0003.83,0002.72,0002.29
2023-06-05 00:03:00,SystemResetWarning,0834.0,5.01,000.00,030.6,029.1,000.0,039.0,032.2,30.3,0000.0,0003.79,0002.71,0002.28
2023-06-05 00:04:00,SystemResetWarning,0834.0,5.00,000.00,030.6,029.1,000.0,039.0,032.2,30.1,0000.0,0003.77,0002.68,0002.28
2023-06-05 00:05:00,SystemResetWarning,0834.0,5.00,000.00,030.6,029.1,000.0,039.0,032.2,30.1,0000.0,0003.82,0002.70,0002.29
2023-06-05 00:06:00,SystemResetWarning,0834.0,5.00,000.00,030.6,029.2,000.0,039.0,032.2,30.2,0000.0,0003.76,0002.69,0002.30
2023-06-05 00:07:00,SystemResetWarning,0834.0,5.01,000.00,030.6,029.1,000.0,039.0,032.2,30.2,0000.0,0003.52,0002.63,0002.31
2023-06-05 00:08:00,SystemResetWarning,0834.0,5.00,000.00,030.6,029.2,000.0,039.0,032.2,29.8,0000.0,0003.46,0002.60,0002.31
2023-06-05 00:09:00,SystemResetWarning,0834.1,4.99,000.00,030.6,029.1,000.0,039.0,032.2,29.7,0000.0,0003.42,0002.59,0002.30
2023-06-05 00:10:00,SystemResetWarning,0834.0,5.00,000.00,030.6,029.2,000.0,039.0,032.2,29.7,0000.0,0003.44,0002.58,0002.29
2023-06-05 00:11:00,SystemResetWarning,0834.0,5.00,000.00,030.6,029.2,000.0,039.0,032.2,29.5,0000.0,0003.59,0002.62,0002.29
2023-06-05 00:12:00,SystemResetWarning,0834.0,5.01,000.00,030.6,029.2,000.0,039.0,032.2,29.2,0000.0,0003.56,0002.60,0002.28
2023-06-05 00:13:00,SystemResetWarning,0834.1,4.99,000.00,030.7,028.8,000.0,039.0,032.2,29.3,0000.0,0003.53,0002.60,0002.27
2023-06-05 00:14:00,SystemResetWarning,0834.0,4.99,000.00,030.6,026.9,000.0,038.9,031.9,29.4,0000.0,0003.48,0002.56,0002.26
2023-06-05 00:15:00,SystemResetWarning,0834.0,5.01,000.00,030.5,025.5,000.0,038.8,031.6,29.9,0000.0,0003.52,0002.57,0002.25
2023-06-05 00:16:00,SystemResetWarning,0834.0,5.01,000.00,030.4,025.2,000.0,038.7,031.4,30.4,0000.0,0003.37,0002.54,0002.24
2023-06-05 00:17:00,SystemResetWarning,0834.0,5.00,000.00,030.2,025.4,000.0,038.7,031.3,30.7,0000.0,0003.53,0002.59,0002.25
2023-06-05 00:18:00,SystemResetWarning,0834.0,4.99,000.00,030.1,025.9,000.0,038.7,031.3,31.0,0000.0,0003.59,0002.62,0002.25
2023-06-05 00:19:00,SystemResetWarning,0833.9,5.00,000.00,030.1,026.3,000.0,038.7,031.4,31.2,0000.0,0003.52,0002.65,0002.27
2023-06-05 00:20:00,SystemResetWarning,0834.0,5.01,000.00,030.1,026.7,000.0,038.6,031.4,31.2,0000.0,0003.60,0002.71,0002.29
2023-06-05 00:21:00,SystemResetWarning,0833.9,5.00,000.00,030.0,027.1,000.0,038.6,031.5,31.2,0000.0,0003.59,0002.72,0002.31
2023-06-05 00:22:00,SystemResetWarning,0834.0,5.00,000.00,030.0,027.4,000.0,038.6,031.5,31.5,0000.0,0003.47,0002.70,0002.33
2023-06-05 00:23:00,SystemResetWarning,0833.9,5.00,000.00,030.0,027.6,000.0,038.6,031.5,31.6,0000.0,0003.56,0002.74,0002.35
2023-06-05 00:24:00,SystemResetWarning,0833.9,5.00,000.00,030.0,027.8,000.0,038.5,031.5,31.8,0000.0,0004.60,0002.81,0002.37
2023-06-05 00:25:00,SystemResetWarning,0833.9,5.00,000.00,030.0,028.0,000.0,038.5,031.5,31.8,0000.0,0005.95,0002.83,0002.39
2023-06-05 00:26:00,SystemResetWarning,0833.9,5.00,000.00,030.1,028.1,000.0,038.5,031.6,31.7,0000.0,0006.01,0002.87,0002.41
2023-06-05 00:27:00,SystemResetWarning,0833.9,5.00,000.00,030.1,028.2,000.0,038.5,031.6,31.9,0000.0,0006.07,0002.89,0002.43
2023-06-05 00:28:00,SystemResetWarning,0833.9,5.00,000.00,030.1,028.3,000.0,038.5,031.6,31.4,0000.0,0005.79,0002.82,0002.43
2023-06-05 00:29:00,SystemResetWarning,0833.8,5.00,000.00,030.1,028.4,000.0,038.5,031.7,31.0,0000.0,0005.63,0002.78,0002.41
2023-06-05 00:30:00,SystemResetWarning,0833.9,5.00,000.00,030.1,028.5,000.0,038.5,031.7,31.1,0000.0,0005.87,0002.79,0002.39
2023-06-05 00:31:00,SystemResetWarning,0833.9,5.00,000.00,030.1,028.5,000.0,038.5,031.7,31.0,0000.0,0006.03,0002.78,0002.37
2023-06-05 00:32:00,SystemResetWarning,0833.9,4.99,000.00,030.2,028.6,000.0,038.5,031.7,31.1,0000.0,0006.08,0002.78,0002.35
2023-06-05 00:33:00,SystemResetWarning,0833.9,4.99,000.00,030.2,028.6,000.0,038.5,031.8,30.7,0000.0,0006.06,0002.77,0002.33
2023-06-05 00:34:00,SystemResetWarning,0833.9,5.00,000.00,030.2,028.6,000.0,038.5,031.7,30.7,0000.0,0005.95,0002.73,0002.32
2023-06-05 00:35:00,SystemResetWarning,0834.0,5.00,000.00,030.2,028.7,000.0,038.5,031.8,30.4,0000.0,0005.04,0002.70,0002.31
2023-06-05 00:36:00,SystemResetWarning,0834.0,5.01,000.00,030.2,028.7,000.0,038.5,031.8,30.2,0000.0,0003.66,0002.67,0002.29
2023-06-05 00:37:00,SystemResetWarning,0834.0,5.01,000.00,030.2,028.7,000.0,038.5,031.8,30.5,0000.0,0003.59,0002.65,0002.27
2023-06-05 00:38:00,SystemResetWarning,0834.0,4.99,000.00,030.2,028.8,000.0,038.6,031.9,30.6,0000.0,0003.72,0002.64,0002.25
2023-06-05 00:39:00,SystemResetWarning,0834.0,4.99,000.00,030.3,028.8,000.0,038.6,031.9,30.4,0000.0,0004.13,0002.68,0002.22
2023-06-05 00:40:00,SystemResetWarning,0834.0,5.01,000.00,030.3,028.8,000.0,038.6,031.9,30.6,0000.0,0004.38,0002.75,0002.23
2023-06-05 00:41:00,SystemResetWarning,0834.0,5.00,000.00,030.3,028.8,000.0,038.6,031.9,31.3,0000.0,0004.21,0002.74,0002.23
2023-06-05 00:42:00,SystemResetWarning,0834.0,5.01,000.00,030.3,028.8,000.0,038.6,031.9,31.5,0000.0,0004.13,0002.76,0002.24
2023-06-05 00:43:00,SystemResetWarning,0833.9,5.00,000.00,030.3,028.8,000.0,038.6,031.9,31.4,0000.0,0004.14,0002.78,0002.26
2023-06-05 00:44:00,SystemResetWarning,0834.0,4.99,000.00,030.3,028.8,000.0,038.6,031.9,31.2,0000.0,0004.27,0002.83,0002.27
2023-06-05 00:45:00,SystemResetWarning,0834.0,5.00,000.00,030.3,028.8,000.0,038.6,031.9,31.2,0000.0,0004.63,0002.95,0002.27
2023-06-05 00:46:00,SystemResetWarning,0834.0,5.00,000.00,030.3,028.8,000.0,038.6,031.9,31.3,0000.0,0004.71,0002.97,0002.28
2023-06-05 00:47:00,SystemResetWarning,0834.0,5.01,000.00,030.3,028.8,000.0,038.6,031.9,31.3,0000.0,0004.72,0002.98,0002.29
2023-06-05 00:48:00,SystemResetWarning,0834.0,5.00,000.00,030.3,028.8,000.0,038.6,031.9,31.5,0000.0,0004.80,0003.01,0002.31
2023-06-05 00:49:00,SystemResetWarning,0834.0,5.01,000.00,030.3,028.8,000.0,038.7,031.9,31.3,0000.0,0004.90,0003.05,0002.34
2023-06-05 00:50:00,SystemResetWarning,0834.1,5.00,000.00,030.3,028.8,000.0,038.7,031.9,31.6,0000.0,0004.87,0003.03,0002.35
2023-06-05 00:51:00,SystemResetWarning,0834.1,5.00,000.00,030.3,028.8,000.0,038.7,031.9,31.5,0000.0,0005.23,0003.00,0002.36
2023-06-05 00:52:00,SystemResetWarning,0834.0,4.99,000.00,030.3,028.8,000.0,038.7,031.9,31.5,0000.0,0005.39,0003.00,0002.35
2023-06-05 00:53:00,SystemResetWarning,0834.1,4.99,000.00,030.3,028.8,000.0,038.7,031.9,31.3,0000.0,0005.88,0003.00,0002.34
2023-06-05 00:54:00,SystemResetWarning,0834.1,4.99,000.00,030.3,028.5,000.0,038.7,031.9,31.1,0000.0,0006.28,0003.02,0002.34
2023-06-05 00:55:00,SystemResetWarning,0834.1,5.00,000.00,030.3,026.8,000.0,038.6,031.6,31.4,0000.0,0006.33,0003.04,0002.35
2023-06-05 00:56:00,SystemResetWarning,0834.1,5.00,000.00,030.2,025.8,000.0,038.5,031.4,31.7,0000.0,0006.10,0002.96,0002.35
2023-06-05 00:57:00,SystemResetWarning,0834.0,5.00,000.00,030.1,025.8,000.0,038.5,031.3,31.9,0000.0,0005.95,0002.93,0002.35
2023-06-05 00:58:00,SystemResetWarning,0834.1,5.02,000.00,030.0,026.1,000.0,038.4,031.3,31.9,0000.0,0005.98,0002.94,0002.36
2023-06-05 00:59:00,SystemResetWarning,0834.1,5.00,000.00,029.9,026.4,000.0,038.4,031.3,32.1,0000.0,0005.97,0002.93,0002.36
